Tracking 31027 objects as of 19-Jul-2025
HD Live streaming from Space Station
objects crossing your sky now

STARLINK-31483

Track STARLINK-31483 now!
10-day predictions
STARLINK-31483 is classified as:


NORAD ID: 59411
Int'l Code: 2024-064P
Perigee: 489.4 km
Apogee: 490.9 km
Inclination: 43.0 °
Period: 94.3 minutes
Semi major axis: 6861 km
RCS: Unknown
Launch date: April 5, 2024
Source: United States (US)
Launch site: AIR FORCE EASTERN TEST RANGE (AFETR)
Your satellite tracking list
No more satellites can be added for tracking (max 5)
SPACE STATION
EYESAT-1
SAUDISAT 1C
FOX-1B (RADFXSAT AO-91)
DOSAAF-85 (RS-44)
Track 5 satellite(s)




NASA's NSSDC Master Catalog

Two Line Element Set (TLE):
1 59411U 24064P   25199.27427100  .00000881  00000-0  41521-4 0  9999
2 59411  43.0009 300.1387 0001085 259.4875 100.5854 15.27578398 73372
Source of the keplerian elements: AFSPC